CHEFSAT (43044 NORAD) Tracking and Keplerian Element Data

This shows tracking and keplerian element data for the satellite.

Feedback or suggestion? Click here.




ElementValue
Catalog43044
NameCHEFSAT
Epoch Orbit7688
Epoch Day109.86524117
Epoch Year2019
RAAN341.2064
Inclination51.6392
Eccentricity0.0003907
Argument of Perigee303.1628
Mean Anonmoly56.8983
Mean Motion15.43160618
Decay Rate5.214E-05
L11 43044U 17071H 19109.86524117 .00005214 00000-0 12491-3 0 9997
L22 43044 51.6392 341.2064 0003907 303.1628 56.8983 15.43160618 76888

Live tracking and technical data element details for CHEFSAT (NORAD 43044). CHEFSAT can be tracked NOW for your location showing map with azimuth and elevation plus other details from your city location.

Track the satellite on the map from your city or location and see movement details for azimuth, elevation, latitude, longitude, range, height, and movement on the map or in text.







IsCatalogInMostPopularTable: catalog: 43044, numindb: 216
Update: records affected: 1



GetName: 43044 CHEFSAT

Hit Count: updated at: Sat, 20 Apr 2019 21:25:19 GMT